• In Belarus
  • List of Countries
  • For 7 days
  • Water Temperature
  • Satellite Maps
  • Weather Map
  • Weather Widgets
  • user-avatar
    Login

    Hourly Weather Qala i Naw

    Today, 17 December, Sunday

    Time Temperature Precipitation Wind Pressure Humidity
    00:00 +6°C° 0 mm 1 mps 685 mmHg 48%
    01:00 +5°C° 0 mm 1 mps 685 mmHg 50%
    02:00 +5°C° 0 mm 1 mps 685 mmHg 49%
    03:00 +5°C° 0 mm 1 mps 685 mmHg 49%
    04:00 +5°C° 0 mm 1 mps 685 mmHg 50%
    05:00 +5°C° 0 mm 1 mps 685 mmHg 50%
    06:00 +5°C° 0 mm 1 mps 685 mmHg 51%
    07:00 +5°C° 0 mm 1 mps 685 mmHg 51%
    08:00 +7°C° 0 mm 1 mps 686 mmHg 47%
    09:00 +9°C° 0 mm 1 mps 686 mmHg 43%
    10:00 +10°C° 0 mm 2 mps 687 mmHg 40%
    11:00 +12°C° 0 mm 2 mps 687 mmHg 39%
    12:00 +13°C° 0 mm 2 mps 686 mmHg 38%
    13:00 +13°C° 0 mm 2 mps 686 mmHg 38%
    14:00 +13°C° 0 mm 2 mps 686 mmHg 39%
    15:00 +13°C° 0 mm 2 mps 686 mmHg 41%
    16:00 +12°C° 0 mm 2 mps 685 mmHg 42%
    17:00 +10°C° 0 mm 2 mps 686 mmHg 44%
    18:00 +10°C° 0 mm 2 mps 686 mmHg 46%
    19:00 +10°C° 0 mm 1 mps 686 mmHg 48%
    20:00 +9°C° 0 mm 1 mps 686 mmHg 49%
    21:00 +9°C° 0 mm 1 mps 686 mmHg 51%
    22:00 +8°C° 0 mm 1 mps 686 mmHg 52%
    23:00 +8°C° 0 mm 1 mps 685 mmHg 53%

    Tomorrow, 18 December, Monday

    Time Temperature Precipitation Wind Pressure Humidity
    00:00 +7°C° 0 mm 1 mps 685 mmHg 54%
    01:00 +7°C° 0 mm 1 mps 685 mmHg 55%
    02:00 +6°C° 0 mm 1 mps 685 mmHg 56%
    03:00 +6°C° 0 mm 1 mps 685 mmHg 56%
    04:00 +6°C° 0 mm 1 mps 685 mmHg 57%
    05:00 +6°C° 0 mm 1 mps 685 mmHg 57%
    06:00 +6°C° 0 mm 1 mps 685 mmHg 58%
    07:00 +6°C° 0 mm 1 mps 686 mmHg 59%
    08:00 +8°C° 0 mm 1 mps 686 mmHg 51%
    09:00 +11°C° 0 mm 1 mps 687 mmHg 44%
    10:00 +13°C° 0 mm 1 mps 687 mmHg 36%
    11:00 +14°C° 0 mm 2 mps 687 mmHg 34%
    12:00 +15°C° 0 mm 2 mps 686 mmHg 32%
    13:00 +16°C° 0 mm 2 mps 686 mmHg 29%
    14:00 +16°C° 0 mm 2 mps 686 mmHg 31%
    15:00 +15°C° 0 mm 2 mps 685 mmHg 32%
    16:00 +15°C° 0 mm 2 mps 685 mmHg 34%
    17:00 +13°C° 0 mm 2 mps 685 mmHg 37%
    18:00 +12°C° 0 mm 1 mps 685 mmHg 41%
    19:00 +10°C° 0 mm 1 mps 685 mmHg 44%
    20:00 +10°C° 0 mm 1 mps 685 mmHg 45%
    21:00 +10°C° 0 mm 1 mps 685 mmHg 46%
    22:00 +9°C° 0 mm 2 mps 685 mmHg 47%
    23:00 +9°C° 0 mm 2 mps 685 mmHg 48%

    Day after tomorrow, 19 December, Tuesday

    Time Temperature Precipitation Wind Pressure Humidity
    00:00 +9°C° 0 mm 2 mps 685 mmHg 49%
    01:00 +8°C° 0 mm 2 mps 685 mmHg 51%
    02:00 +8°C° 0 mm 2 mps 685 mmHg 51%
    03:00 +8°C° 0 mm 2 mps 685 mmHg 52%
    04:00 +8°C° 0 mm 2 mps 684 mmHg 53%
    05:00 +8°C° 0 mm 2 mps 685 mmHg 54%
    06:00 +8°C° 0 mm 2 mps 685 mmHg 54%
    07:00 +8°C° 0 mm 2 mps 685 mmHg 55%
    08:00 +10°C° 0 mm 2 mps 686 mmHg 48%
    09:00 +13°C° 0 mm 2 mps 687 mmHg 41%
    10:00 +15°C° 0 mm 2 mps 687 mmHg 34%
    11:00 +16°C° 0 mm 2 mps 687 mmHg 31%
    12:00 +17°C° 0 mm 2 mps 687 mmHg 28%
    13:00 +18°C° 0 mm 2 mps 686 mmHg 25%
    14:00 +17°C° 0 mm 2 mps 686 mmHg 26%
    15:00 +17°C° 0 mm 2 mps 686 mmHg 28%
    16:00 +16°C° 0 mm 2 mps 685 mmHg 29%
    17:00 +15°C° 0 mm 2 mps 686 mmHg 32%
    18:00 +13°C° 0 mm 2 mps 686 mmHg 34%
    19:00 +12°C° 0 mm 2 mps 686 mmHg 37%
    20:00 +12°C° 0 mm 2 mps 686 mmHg 37%
    21:00 +12°C° 0 mm 2 mps 686 mmHg 38%
    22:00 +10°C° 0 mm 2 mps 686 mmHg 38%
    23:00 +10°C° 0 mm 2 mps 686 mmHg 38%

    20 December, Wednesday

    Time Temperature Precipitation Wind Pressure Humidity
    00:00 +10°C° 0 mm 2 mps 686 mmHg 38%
    01:00 +10°C° 0 mm 2 mps 685 mmHg 38%
    02:00 +9°C° 0 mm 2 mps 686 mmHg 38%
    03:00 +9°C° 0 mm 2 mps 686 mmHg 38%
    04:00 +9°C° 0 mm 2 mps 686 mmHg 38%
    05:00 +9°C° 0 mm 3 mps 686 mmHg 38%
    06:00 +9°C° 0 mm 3 mps 686 mmHg 38%
    07:00 +9°C° 0 mm 3 mps 687 mmHg 39%
    08:00 +12°C° 0 mm 2 mps 687 mmHg 34%
    09:00 +14°C° 0 mm 2 mps 688 mmHg 30%
    10:00 +16°C° 0 mm 2 mps 689 mmHg 26%
    11:00 +16°C° 0 mm 2 mps 689 mmHg 25%
    12:00 +17°C° 0 mm 2 mps 688 mmHg 24%
    13:00 +18°C° 0 mm 2 mps 688 mmHg 23%
    14:00 +17°C° 0 mm 2 mps 688 mmHg 25%
    15:00 +17°C° 0 mm 2 mps 688 mmHg 26%
    16:00 +16°C° 0 mm 2 mps 688 mmHg 28%
    17:00 +15°C° 0 mm 2 mps 688 mmHg 32%
    18:00 +13°C° 0 mm 1 mps 688 mmHg 36%
    19:00 +11°C° 0 mm 1 mps 688 mmHg 39%
    20:00 +11°C° 0 mm 1 mps 688 mmHg 41%
    21:00 +9°C° 0 mm 0 mps 688 mmHg 42%
    22:00 +8°C° 0 mm 0 mps 689 mmHg 43%
    23:00 +8°C° 0 mm 0 mps 688 mmHg 44%

    21 December, Thursday

    Time Temperature Precipitation Wind Pressure Humidity
    00:00 +8°C° 0 mm 0 mps 688 mmHg 44%
    01:00 +7°C° 0 mm 0 mps 688 mmHg 45%
    02:00 +7°C° 0 mm 0 mps 688 mmHg 45%
    03:00 +7°C° 0 mm 0 mps 688 mmHg 46%
    04:00 +7°C° 0 mm 0 mps 687 mmHg 46%
    05:00 +8°C° 0 mm 1 mps 688 mmHg 45%
    06:00 +8°C° 0 mm 1 mps 688 mmHg 45%
    07:00 +8°C° 0 mm 1 mps 688 mmHg 45%
    08:00 +10°C° 0 mm 1 mps 688 mmHg 39%
    09:00 +12°C° 0 mm 1 mps 689 mmHg 33%
    10:00 +14°C° 0 mm 1 mps 690 mmHg 27%
    11:00 +15°C° 0 mm 1 mps 689 mmHg 25%
    12:00 +16°C° 0 mm 1 mps 689 mmHg 23%
    13:00 +18°C° 0 mm 1 mps 688 mmHg 21%
    14:00 +16°C° 0 mm 1 mps 688 mmHg 22%
    15:00 +16°C° 0 mm 1 mps 688 mmHg 24%
    16:00 +15°C° 0 mm 1 mps 687 mmHg 26%
    17:00 +14°C° 0 mm 1 mps 687 mmHg 28%
    18:00 +12°C° 0 mm 1 mps 687 mmHg 30%
    19:00 +11°C° 0 mm 1 mps 686 mmHg 33%
    20:00 +11°C° 0 mm 1 mps 686 mmHg 32%
    21:00 +11°C° 0 mm 1 mps 686 mmHg 32%
    22:00 +10°C° 0 mm 1 mps 686 mmHg 31%
    23:00 +10°C° 0 mm 1 mps 686 mmHg 31%

    22 December, Friday

    Time Temperature Precipitation Wind Pressure Humidity
    00:00 +10°C° 0 mm 1 mps 685 mmHg 31%
    01:00 +10°C° 0 mm 1 mps 685 mmHg 31%
    02:00 +9°C° 0 mm 2 mps 685 mmHg 31%
    03:00 +8°C° 0 mm 2 mps 684 mmHg 31%
    04:00 +8°C° 0 mm 2 mps 684 mmHg 31%
    05:00 +8°C° 0 mm 2 mps 684 mmHg 31%
    06:00 +8°C° 0 mm 2 mps 684 mmHg 31%
    07:00 +8°C° 0 mm 2 mps 685 mmHg 32%
    08:00 +12°C° 0 mm 2 mps 685 mmHg 28%
    09:00 +14°C° 0 mm 2 mps 686 mmHg 25%
    10:00 +16°C° 0 mm 2 mps 686 mmHg 21%
    11:00 +17°C° 0 mm 2 mps 686 mmHg 21%
    12:00 +18°C° 0 mm 2 mps 685 mmHg 20%
    13:00 +19°C° 0 mm 2 mps 684 mmHg 19%
    14:00 +18°C° 0 mm 2 mps 684 mmHg 21%
    15:00 +18°C° 0 mm 2 mps 684 mmHg 22%
    16:00 +18°C° 0 mm 1 mps 683 mmHg 24%
    17:00 +16°C° 0 mm 2 mps 683 mmHg 26%
    18:00 +16°C° 0 mm 2 mps 683 mmHg 27%
    19:00 +15°C° 0 mm 2 mps 683 mmHg 28%
    20:00 +15°C° 0 mm 2 mps 683 mmHg 29%
    21:00 +13°C° 0 mm 3 mps 683 mmHg 30%
    22:00 +13°C° 0 mm 3 mps 683 mmHg 31%
    23:00 +13°C° 0 mm 3 mps 682 mmHg 32%
    Show more

    XHprof extension not loaded